Location: Bron Breck
(40.6655°N, 111.8083°W)
Time: 01:55:41
(UTC+00:00)

Envisat - Pass Details

Date: 12 March 2021
Orbit: 764 x 766 km, 98.1° (Epoch: 11 April)

Event Time Altitude Azimuth Distance (km) Brightness Sun altitude
Rises 12:45:53 0° 17° (NNE) 3,239 6.6 -11.7°
Reaches altitude 10° 12:48:15 10° 22° (NNE) 2,309 5.9 -11.2°
Maximum altitude 12:53:14 55° 100° (E) 920 3.9 -10.3°
Drops below altitude 10° 12:58:11 10° 178° (S) 2,292 5.5 -9.4°
Sets 13:00:31 0° 182° (S) 3,213 6.2 -8.9°
